Regional Weather Roundup
Issued by NWS

Home | Current Version | Previous Version | Text Only | Print | Product List | Glossary Off
Versions: 1 2 3 4 5 6 7 8 9 10 11 12 13 14 15 16 17 18 19 20 21 22 23 24 25 26 27 28 29 30 31 32 33 34 35 36 37 38 39 40 41 42 43 44 45 46 47 48 49 50

000
ASUS43 KDTX 160601
RWRMI
MICHIGAN HOURLY REGIONAL WEATHER ROUNDUP
NATIONAL WEATHER SERVICE DETROIT/PONTIAC MI
100 AM EST MON JAN 16 2017

NOTE: "FAIR" INDICATES FEW OR NO CLOUDS BELOW 12,000 FEET WITH NO
SIGNIFICANT WEATHER AND/OR OBSTRUCTION TO VISIBILITY.

MIZ047>049-052>055-059>063-066>070-074>076-081>083-160700-
SOUTHEAST LOWER MICHIGAN

CITY           SKY/WX    TMP DP  RH WIND       PRES   REMARKS
ADRIAN         CLOUDY    22  21  96 CALM      30.34F
6HR MIN TEMP:  21; 6HR MAX TEMP:  27;

ALMA           CLOUDY    21  20  93 S3        30.32F
ANN ARBOR      CLOUDY    17  15  92 CALM      30.33F FOG
BAD AXE        CLOUDY    21  19  89 SW3       30.31S
6HR MIN TEMP:  18; 6HR MAX TEMP:  23;

CARO           CLOUDY    18  16  94 CALM      30.31F FOG
DETROIT CITY   CLOUDY    22  20  92 CALM      30.36S FOG
6HR MIN TEMP:  22; 6HR MAX TEMP:  27;

DETROIT        CLOUDY    22  18  85 CALM      30.36F
6HR MIN TEMP:  22; 6HR MAX TEMP:  28;

FLINT          CLOUDY    24  20  84 S7        30.33F WCI  16
6HR MIN TEMP:  22; 6HR MAX TEMP:  30;

GROSSE ILE     CLOUDY    21  19  89 CALM      30.34F
6HR MIN TEMP:  21; 6HR MAX TEMP:  28;

HILLSDALE      CLOUDY    23  21  93 CALM      30.30S
HOWELL         CLOUDY    24  21  91 CALM      30.32F

CITY           SKY/WX    TMP DP  RH WIND       PRES   REMARKS
JACKSON        PTCLDY    22  18  85 CALM      30.31F FOG
6HR MIN TEMP:  21; 6HR MAX TEMP:  28; 6HR PCP: TRACE;

LAMBERTVILLE   CLOUDY    23  20  89 CALM      30.35S FOG
6HR MIN TEMP:  23; 6HR MAX TEMP:  29;

LANSING        CLOUDY    22  17  81 CALM      30.33F
6HR MIN TEMP:  22; 6HR MAX TEMP:  30;

LAPEER         FAIR      23  21  95 CALM      30.32
6HR MIN TEMP:  20; 6HR MAX TEMP:  29;

MASON          CLOUDY    24  23  95 CALM      30.32S
MONROE         CLOUDY    22  21  96 CALM      30.34F FOG
6HR MIN TEMP:  21; 6HR MAX TEMP:  26;

MT. CLEMENS    CLOUDY    20  19  95 CALM      30.33F
6HR MIN TEMP:  20; 6HR MAX TEMP:  25;

PONTIAC        CLOUDY    21  16  81 CALM      30.32S HAZE
6HR MIN TEMP:  20; 6HR MAX TEMP:  29;

PORT HOPE        N/A     24  20  84 VRB5      30.29F WCI  18
6HR MIN TEMP:  23; 6HR MAX TEMP:  27;

PORT HURON     CLOUDY    25  21  86 CALM      30.34F
TRI CITIES     CLOUDY    25  22  88 SW8       30.32F FOG     WCI  16
6HR MIN TEMP:  24; 6HR MAX TEMP:  29;

MIDLAND        FAIR      18  15  88 CALM      30.31F
6HR MIN TEMP:  17; 6HR MAX TEMP:  25;

TROY           CLOUDY    26  21  83 CALM      30.36S
SAGINAW HB     CLOUDY    25  19  80 S6        30.31F WCI  18
$$
MIZ043>046-050>051-056>058-064>065-071>073-077>080-160700-
SOUTHWEST LOWER MICHIGAN

CITY           SKY/WX    TMP DP  RH WIND       PRES   REMARKS
BATTLE CREEK   CLOUDY    23  20  88 CALM      30.31F
6HR MIN TEMP:  22; 6HR MAX TEMP:  28;

BENTON HARBOR  PTCLDY    25  22  88 CALM      30.31F FOG
6HR MIN TEMP:  24; 6HR MAX TEMP:  30;

BIG RAPIDS     CLOUDY    15  13  92 CALM      30.28F
6HR MIN TEMP:  13; 6HR MAX TEMP:  24;

COLDWATER      PTCLDY    25  21  83 MISG      30.31S
6HR MIN TEMP:  25; 6HR MAX TEMP:  30;

FREMONT        FAIR      19  18  96 S3        30.29F
HOLLAND        PTCLDY    26  20  77 CALM      30.32S
6HR MIN TEMP:  25; 6HR MAX TEMP:  30;

GRAND RAPIDS   CLOUDY    22  18  85 CALM      30.31F FOG
6HR MIN TEMP:  22; 6HR MAX TEMP:  29;

IONIA          FAIR      24  22  89 CALM      30.31F
6HR MIN TEMP:  22; 6HR MAX TEMP:  28;

KALAMAZOO      CLOUDY    25  19  78 CALM      30.32S HAZE
6HR MIN TEMP:  24; 6HR MAX TEMP:  31;

LUDINGTON      PTCLDY    18  17  97 CALM      30.29S FOG
6HR MIN TEMP:  15; 6HR MAX TEMP:  26;

MARSHALL       CLOUDY    22  20  93 S3        30.31S
6HR MIN TEMP:  22; 6HR MAX TEMP:  29;

MOUNT PLEASANT CLOUDY    18  16  93 CALM      30.29F FOG
6HR MIN TEMP:  17; 6HR MAX TEMP:  27;

MUSKEGON       CLOUDY    21  19  92 E3        30.31F FOG
6HR MIN TEMP:  21; 6HR MAX TEMP:  27;

SOUTH HAVEN    CLEAR     22  20  93 CALM      30.31F FOG
$$
MIZ016>042-160700-
NORTHERN LOWER MICHIGAN

CITY           SKY/WX    TMP DP  RH WIND       PRES   REMARKS
ALPENA         CLOUDY    23  15  71 SW6       30.25S WCI  16
6HR MIN TEMP:  14; 6HR MAX TEMP:  24;

BELLAIRE       PTCLDY    10   8  92 CALM      30.28S
6HR MIN TEMP:  10; 6HR MAX TEMP:  22;

CADILLAC       CLOUDY    19  17  91 CALM      30.24F
CHARLEVOIX     CLEAR     29  24  83 S8        30.27S WCI  21
6HR MIN TEMP:  23; 6HR MAX TEMP:  29;

FRANKFORT      CLOUDY    19  19  98 CALM      30.27F FOG
GAYLORD        CLOUDY    17  12  80 SW7       30.22S WCI   8
6HR MIN TEMP:  17; 6HR MAX TEMP:  22;

GRAYLING       PTCLDY     5   1  85 CALM      30.25F FOG
6HR MIN TEMP:   2; 6HR MAX TEMP:  13;

HARBOR SPRINGS CLEAR     25  22  89 SW3       30.25S
HOUGHTON LAKE  CLOUDY    17  15  92 W3        30.26F
6HR MIN TEMP:  12; 6HR MAX TEMP:  24;

MANISTEE       CLOUDY    13  10  88 E5        30.29F WCI   5
OSCODA         CLEAR     19  15  88 CALM      30.28R
6HR MIN TEMP:  16; 6HR MAX TEMP:  26;

PELLSTON       CLEAR     27  21  78 SW12      30.23S WCI  17
6HR MIN TEMP:  20; 6HR MAX TEMP:  28;

ROGERS CITY    CLOUDY    26  16  65 SW14      30.24R WCI  14
TRAVERSE CITY  CLOUDY    23  19  85 SW3       30.26F
6HR MIN TEMP:  23; 6HR MAX TEMP:  28;

$$
MIZ007>008-015-160700-
EASTERN UPPER MICHIGAN

CITY           SKY/WX    TMP DP  RH WIND       PRES   REMARKS
KINROSS        CLEAR     27  26  96 SW9       30.17F WCI  18
6HR MIN TEMP:  24; 6HR MAX TEMP:  27;

MACKINAC ISLAN CLEAR     28  24  87 SW14G21   30.20S WCI  16
6HR MIN TEMP:  25; 6HR MAX TEMP:  29;

NEWBERRY       CLEAR     22  19  87 SW14      30.15F WCI  10
6HR MIN TEMP:  22; 6HR MAX TEMP:  23;

S. S. MARIE    CLEAR     21  17  84 CALM      30.16F
6HR MIN TEMP:  20; 6HR MAX TEMP:  25;

$$
MIZ004>006-011>014-085-160700-
CENTRAL UPPER MICHIGAN

CITY           SKY/WX    TMP DP  RH WIND       PRES   REMARKS
MANISTIQUE     CLEAR     22  15  72 SW7       30.20S WCI  14
6HR MIN TEMP:  22; 6HR MAX TEMP:  25;

ESCANABA       CLOUDY    16  11  80 S6        30.21S WCI   7
6HR MIN TEMP:  16; 6HR MAX TEMP:  21;

SAWYER-GWINN   CLOUDY    21  10  60 SW8       30.12R WCI  12
6HR MIN TEMP:  19; 6HR MAX TEMP:  23;

$$
MIZ001>003-009>011-084-160700-
WESTERN UPPER MICHIGAN

CITY           SKY/WX    TMP DP  RH WIND       PRES   REMARKS
IRON MOUNTAIN  CLOUDY    20   8  60 NW6       30.16F WCI  12
6HR MIN TEMP:  18; 6HR MAX TEMP:  28;

HOUGHTON       CLEAR     28  13  53 W18       30.07S WCI  15
6HR MIN TEMP:  28; 6HR MAX TEMP:  33;

COPPER HARBOR    N/A     32  19  58 VRB3      30.04F
6HR MIN TEMP:  29; 6HR MAX TEMP:  35;

IRONWOOD       CLOUDY    22  14  71 SW7       30.15R WCI  13
6HR MIN TEMP:  22; 6HR MAX TEMP:  29;

$$

ABBREVIATIONS USED IN REMARKS
   TC - TEMPERATURE IN CELSIUS
  WCI - WIND CHILL INDEX
   HX - HEAT INDEX
  VSB - VISIBILITY





USA.gov is the U.S. government's official web portal to all federal, state and local government web resources and services.